TimeEST,TemperatureF,Dew PointF,Humidity,Sea Level PressureIn,VisibilityMPH,Wind Direction,Wind SpeedMPH,Gust SpeedMPH,PrecipitationIn,Events,Conditions,WindDirDegrees,DateUTC
12:54 AM,37.0,26.1,65,30.23,10.0,Calm,Calm,-,N/A,,Clear,0,2012-12-12 05:54:00
1:54 AM,35.1,26.1,70,30.25,10.0,NNW,3.5,-,N/A,,Clear,330,2012-12-12 06:54:00
2:54 AM,35.1,26.1,70,30.28,10.0,NW,3.5,-,N/A,,Clear,310,2012-12-12 07:54:00
3:54 AM,35.1,26.1,70,30.30,10.0,NNW,4.6,-,N/A,,Clear,330,2012-12-12 08:54:00
4:54 AM,35.1,25.0,67,30.32,10.0,Calm,Calm,-,N/A,,Clear,0,2012-12-12 09:54:00
5:54 AM,34.0,25.0,70,30.34,10.0,NNW,4.6,-,N/A,,Clear,330,2012-12-12 10:54:00
6:54 AM,34.0,25.0,70,30.36,10.0,Calm,Calm,-,N/A,,Clear,0,2012-12-12 11:54:00
7:54 AM,35.1,26.1,70,30.38,10.0,Calm,Calm,-,N/A,,Clear,0,2012-12-12 12:54:00
8:54 AM,39.9,27.0,60,30.39,10.0,NNE,3.5,-,N/A,,Clear,20,2012-12-12 13:54:00
9:54 AM,42.1,28.0,58,30.41,10.0,Calm,Calm,-,N/A,,Clear,0,2012-12-12 14:54:00
10:54 AM,44.1,24.1,45,30.42,10.0,NW,5.8,-,N/A,,Clear,310,2012-12-12 15:54:00
11:54 AM,44.1,24.1,45,30.41,10.0,NNW,9.2,-,N/A,,Clear,340,2012-12-12 16:54:00
12:54 PM,44.1,24.1,45,30.40,10.0,NNE,8.1,-,N/A,,Clear,30,2012-12-12 17:54:00
1:54 PM,44.1,25.0,47,30.40,10.0,North,6.9,-,N/A,,Clear,350,2012-12-12 18:54:00
2:54 PM,43.0,25.0,49,30.39,10.0,NNW,6.9,-,N/A,,Clear,340,2012-12-12 19:54:00
3:54 PM,41.0,25.0,53,30.40,10.0,NNW,5.8,-,N/A,,Clear,340,2012-12-12 20:54:00
4:54 PM,41.0,24.1,51,30.42,10.0,NW,4.6,-,N/A,,Clear,320,2012-12-12 21:54:00
5:54 PM,37.9,26.1,62,30.42,10.0,North,4.6,-,N/A,,Clear,350,2012-12-12 22:54:00
6:54 PM,39.2,24.8,56,30.40,10.0,North,4.6,-,N/A,,Clear,360,2012-12-12 23:54:00
7:54 PM,37.9,24.1,57,30.43,10.0,North,3.5,-,N/A,,Clear,360,2012-12-13 00:54:00
8:54 PM,37.0,24.1,59,30.46,10.0,Calm,Calm,-,N/A,,Clear,0,2012-12-13 01:54:00
9:54 PM,35.1,25.0,67,30.44,10.0,North,4.6,-,N/A,,Clear,360,2012-12-13 02:54:00
10:54 PM,37.0,24.1,59,30.45,10.0,Calm,Calm,-,N/A,,Clear,0,2012-12-13 03:54:00
11:54 PM,35.1,25.0,67,30.44,10.0,North,4.6,-,N/A,,Clear,10,2012-12-13 04:54:00